Simultaneous Nadir Overpasses (SNOs) Predictions

Prediction of SNOs between GOES-15 and METOP-B Satellite Orbit:

Table of predicted SNOs for the next 14.0 days since TLE Epoch: 3/10/2017
Index Date Time (GOES-15) GOES-15 Lat,Lon METOP-B Lat,Lon Distance(km) Time Diff (sec)
1 03/11/2017 06:28:04 -0.03,-134.82 0.20,-133.81 114.59 80
2 03/12/2017 18:44:15 0.03,-134.76 0.84,-138.37 411.16 80
3 03/13/2017 18:26:16 0.03,-134.72 -0.27,-133.37 153.56 80
4 03/15/2017 06:42:36 -0.03,-134.65 -0.76,-137.97 378.07 80
5 03/16/2017 06:24:37 -0.03,-134.61 0.34,-132.97 186.42 80
6 03/17/2017 18:40:48 0.03,-134.55 0.68,-137.53 340.16 80
7 03/18/2017 18:22:49 0.03,-134.50 -0.43,-132.54 223.83 80
8 03/20/2017 06:39:09 -0.02,-134.42 -0.61,-137.14 309.19 80
9 03/21/2017 06:21:08 -0.03,-134.37 0.44,-132.13 254.51 80
10 03/22/2017 18:37:20 0.02,-134.30 0.57,-136.69 273.15 80
11 03/23/2017 18:19:20 0.03,-134.24 -0.54,-131.69 290.09 80




NCC Satellite Simultaneous Nadir Overpasses (SNOs) Prediction Service
